Flag for Montenegro Weather past 2 weeks in Nikšić, Montenegro

Now
90 °F

Scattered clouds.


Feels Like: 89 °F
Forecast: 60 / 86 °F
Wind: 5 mph from North

Location: Niksic

Current Time: Jul 30, 2015 at 7:10:33 PM

Latest Report: Jul 30, 2015 at 6:00 PM


Visibility: 13 mi

Pressure: 29.72 "Hg (27.68 "Hg at 635m altitude)

Humidity: 31%

Dew point: 56 °F

Location of NikšićLocation

Historic Weather in Nikšić — Graph

°F

Nikšić temperature yesterday

Maximum temperature yesterday: 93 °F (at 4:00 PM)
Minimum temperature yesterday: 62 °F (at 6:00 AM)
Average temperature yesterday: 81 °F

Past Weeks' High & Low Weather Summary

 TemperatureHumidityPressure
High99 °F (Jul 20, 4:00 PM)100% (Jul 27, 8:00 AM)30.13 "Hg (Jul 27, 8:00 AM)
Low60 °F (Jul 28, 6:00 AM)21% (Jul 21, 5:00 PM)29.69 "Hg (Jul 29, 3:00 PM)
Average80 °F63%29.86 "Hg
* Reported Jul 15 5:00 PM — Jul 30 5:00 PM, Nikšić, Weather by CustomWeather, © 2015

Note: Actual official high and low records may vary slightly from our data, if they occured in-between our weather recording intervals... More about our weather records

Advertising

Nikšić weather history for previous 24 hours

 ConditionsComfort  
Time TempWeatherWind HumidityBarometerVisibility
5:00 PM
Thu, Jul 30
91 °FScattered clouds.5 mph31%29.71 "Hg12 mi
4:00 PM93 °FScattered clouds.6 mph31%29.71 "Hg12 mi
3:00 PM94 °FScattered clouds.3 mph31%29.71 "Hg12 mi
2:00 PM91 °FScattered clouds.5 mph39%29.72 "Hg12 mi
1:00 PM92 °FPassing clouds.3 mph36%29.72 "Hg12 mi
12:00 PM90 °FPassing clouds.3 mph41%29.74 "Hg12 mi
11:00 AM87 °FPassing clouds.1 mph54%29.75 "Hg12 mi
10:00 AM81 °FPassing clouds.1 mph74%29.79 "Hg12 mi
9:00 AM75 °FSunny.2 mph84%29.81 "Hg12 mi
8:00 AM70 °FSunny.No wind96%29.86 "Hg12 mi
7:00 AM67 °FSunny.2 mph99%29.87 "Hg12 mi
6:00 AM64 °FSunny.2 mph99%29.87 "Hg12 mi
2:00 AM69 °FClear.No wind97%29.84 "Hg12 mi
11:00 PM
Wed, Jul 29
75 °FClear.2 mph84%29.81 "Hg12 mi
10:00 PM78 °FPassing clouds.2 mph80%29.78 "Hg12 mi
9:00 PM82 °FPassing clouds.2 mph74%29.77 "Hg12 mi
8:00 PM85 °FScattered clouds.3 mph63%29.73 "Hg12 mi
7:00 PM86 °FScattered clouds.3 mph60%29.72 "Hg12 mi
Weather by CustomWeather, © 2015

See weather overviewHow to use our weather pages